#timestamp,LO_Frequency,Hit,StdDev 
1587859215.3,286047001.4,N
1587859235.2,286047002.2,N
1587859255.9,286047002.8,N
1587859275.7,286047003.3,N
1587859295.6,286047003.0,N
1587859315.4,286047003.4,N
1587859335.3,286047001.4,N
1587859355.1,286047003.3,N
1587859356.0,286047003.3,N
1587859375.8,286047003.9,N
1587859395.7,286047002.6,N
1587859415.5,286047001.9,N
1587859435.3,286047000.2,N
1587859455.2,286046999.8,N
1587859475.0,286047001.6,N
1587859475.9,286047001.6,N
1587859495.8,286047002.1,N
1587859515.6,286047003.9,N
1587859535.5,286047004.4,Y
1587859555.3,286047001.0,P
1587859575.1,286047011.9,P
1587859595.9,286046998.7,N
1587859615.7,286046998.8,N
1587859635.5,286047000.8,N
1587859655.4,286046998.2,N
1587859675.2,286046999.8,N
1587859695.1,286047001.3,N
1587859696.0,286047001.3,N
1587859715.8,286047002.8,N
1587859735.6,286047001.6,N
1587859755.5,286047000.5,N
1587859775.3,286047000.4,N
1587859795.1,286046998.5,N
1587859815.9,286046998.7,N
1587859835.7,286047001.2,N
1587859855.6,286046999.9,N
1587859875.4,286046998.2,N
1587859895.2,286047000.8,N
1587859915.1,286046998.8,N
1587859916.0,286046998.8,N
1587859935.8,286047000.9,N
1587859955.7,286047000.0,N
1587859975.5,286047000.9,N
1587859995.3,286046998.1,N
1587860015.2,286047002.4,N
1587860035.0,286047000.0,N
1587860035.9,286047000.0,N
1587860055.7,286047000.3,N
1587860075.6,286047000.2,N
1587860095.4,286046999.9,N
1587860115.3,286046998.1,N
1587860135.1,286047000.8,N
1587860155.8,286046998.3,N
1587860175.7,286046998.5,N
1587860195.5,286046998.3,N
1587860215.4,286047001.0,N
1587860235.2,286047000.5,N
1587860255.0,286046998.3,N
1587860255.9,286046998.3,N
1587860275.8,286046999.6,N
1587860295.6,286046996.9,N
1587860315.5,286046998.4,N
1587860335.3,286047001.1,N
1587860355.1,286046998.4,N
1587860375.9,286047000.7,N
1587860395.7,286047000.3,N
1587860415.5,286047002.8,N
1587860435.4,286047000.5,N
1587860455.2,286047001.2,N
1587860475.1,286047001.0,N
1587860476.0,286047001.0,N
1587860495.8,286047001.1,N
1587860515.6,286047000.3,N
1587860535.5,286047000.4,N
1587860555.3,286046999.4,N
1587860575.2,286046997.1,N
1587860595.9,286046996.8,N
1587860615.7,286046998.0,N
1587860635.6,286046997.7,N
1587860655.4,286046995.4,Y
1587860675.3,286046996.9,P
1587860695.1,286046996.6,N
1587860696.0,286046996.6,N
1587860715.8,286046996.6,N
1587860735.7,286046996.9,N
1587860755.5,286046997.9,N
1587860775.3,286046995.4,Y
1587860795.2,286047000.4,P
1587860815.0,286047001.5,N
1587860815.9,286047001.5,N
1587860835.8,286047004.0,N
1587860855.6,286047005.8,N
1587860875.4,286047004.0,N
1587860895.3,286047001.3,N
1587860915.1,286047001.3,N
1587860935.9,286047006.0,N
1587860955.7,286047005.6,N
1587860975.5,286047005.7,N
1587860995.4,286047003.6,N
1587861015.2,286047004.6,N
1587861035.0,286047004.4,N
1587861035.9,286047004.4,N
1587861055.8,286047002.5,N
1587861075.6,286047004.4,N
1587861095.5,286047004.2,N
1587861115.3,286047002.2,N
1587861135.1,286047002.5,N
1587861155.9,286047001.8,N
1587861175.7,286047001.6,N
1587861195.6,286047001.3,N
1587861215.4,286047001.7,N
1587861235.2,286047003.6,N
1587861255.1,286047004.1,N
1587861256.0,286047004.1,N
1587861275.8,286047001.6,N
1587861295.7,286047002.0,N
1587861315.5,286047001.3,N
1587861335.3,286047004.0,N
1587861355.2,286047001.7,N
1587861375.0,286047001.6,N
1587861375.9,286047001.6,N
1587861395.8,286047001.3,N
1587861415.6,286047004.0,N
1587861435.4,286047003.7,N
1587861455.3,286047004.3,N
1587861475.1,286047004.5,Y
1587861495.9,286047001.7,P
1587861515.7,286047001.5,N
1587861535.5,286047002.8,P
1587861555.4,286047000.6,N
1587861575.2,286047002.3,N
1587861595.1,286047004.2,Y
1587861596.0,286047004.2,P
1587861615.8,286047000.7,N
1587861635.6,286046998.8,N
1587861655.5,286046998.3,N
1587861675.3,286046999.1,N
1587861695.1,286046998.9,N
1587861715.9,286046996.7,N
1587861735.7,286046999.2,N
1587861755.6,286046998.3,N
1587861775.4,286046998.7,N
1587861795.3,286046999.7,N
1587861815.1,286047001.9,N
1587861816.0,286047001.9,N
1587861835.8,286047002.8,N
1587861855.7,286047002.6,N
1587861875.5,286047001.3,N
1587861895.3,286047004.3,N
1587861915.2,286047000.0,N
1587861935.0,286047002.7,N
1587861935.9,286047002.7,N
1587861955.8,286047000.0,N
1587861975.6,286047003.8,N
1587861995.4,286047001.4,N
1587862015.3,286047005.6,N
1587862035.1,286047003.9,N
1587862055.9,286047000.5,N
1587862075.7,286047000.4,N
1587862095.5,286046998.2,N
1587862115.4,286047000.2,N
1587862135.2,286047001.9,N
1587862155.0,286046998.2,N
1587862155.9,286046998.2,N
1587862175.8,286047000.4,N
1587862195.6,286047000.1,N
1587862215.5,286047000.6,N
1587862235.3,286047001.7,N
1587862255.1,286047003.2,N
1587862275.9,286047006.0,Y
1587862295.7,286047004.3,P
1587862315.6,286047001.4,N
1587862335.4,286046999.9,N
1587862355.2,286047001.9,N
1587862375.1,286047000.8,N
1587862376.0,286047000.8,N
1587862395.8,286047002.5,N
1587862415.7,286046998.9,N
1587862435.5,286046998.2,N
1587862455.3,286046999.0,N
1587862475.2,286046998.6,N
1587862495.0,286046999.2,N
1587862495.9,286046999.2,N
1587862515.7,286046996.6,N
1587862535.6,286046997.4,N
1587862555.4,286046995.0,N
1587862575.3,286046996.1,N
1587862595.1,286046994.1,N
1587862615.8,286046993.3,N
1587862635.7,286046993.5,N
1587862655.5,286046993.3,N
1587862675.4,286046995.2,N
1587862695.2,286046993.7,N
1587862715.0,286046994.1,N
1587862715.9,286046994.1,N
1587862735.8,286046994.5,N
1587862755.6,286046994.4,N
1587862775.5,286046992.0,N
1587862795.3,286046994.4,N
